Location: Guewel
(15.1487°N, 12.7929°W)
Time: 17:32:28
(UTC+00:00)

Daily predictions for brighter satellites

Satellite Brightness Start Highest point End
(mag) Time Altitude Azimuth Time Altitude Azimuth Time Altitude Azimuth
Cosmos 1633 Rocket 4.3 19:12:38 10° SE 19:15:50 20° E 19:19:03 10° NE
Atlas Centaur 2 3.1 19:10:40 10° NW 19:16:43 36° NNE 19:21:34 10° E
CZ-4B R/B 4.1 19:16:11 10° NNW 19:18:33 21° WNW 19:20:56 10° SW
ARIANE 5 R/B 3.9 18:47:36 10° W 19:18:47 49° SSW 19:23:35 10° ESE
Cosmos 1954 Rocket 4.0 19:16:21 10° NNW 19:21:31 89° ENE 19:26:40 10° SSE
IRS-1C Rocket 4.3 19:19:58 10° SSE 19:24:58 46° ENE 19:29:58 10° N
SL-16 R/B 2.6 19:19:53 10° S 19:25:07 40° ESE 19:30:21 10° NE
Okean O Rocket 3.4 19:21:16 10° SSW 19:25:18 37° W 19:29:19 10° NNW
Timation 2 Rocket 3.9 19:19:40 10° NNW 19:25:54 84° ENE 19:31:55 10° SSE
ATLAS 3B CENTAUR R/B 4.1 19:10:08 10° WNW 19:28:42 82° SSW 19:37:04 10° ESE
ERS-2 2.8 19:28:45 10° N 19:32:20 59° WNW 19:35:54 10° SSW
RESURS DK-1 2.5 19:28:54 10° N 19:32:53 48° ENE 19:36:51 10° SSE
CZ-4 R/B 1.5 19:30:39 10° SSE 19:34:19 44° ENE 19:37:58 10° N
Feng Yun 1-1 Rocket 4.4 19:28:57 10° SSE 19:34:37 90° SW 19:40:27 10° NNW
ATLAS CENTAUR R/B 3.3 19:36:28 10° ESE 19:36:39 10° ESE 19:36:39 10° ESE
CZ-2C R/B 0.6 19:34:50 10° NW 19:38:00 63° NNE 19:40:39 14° ESE
Cosmos 2154 Rocket 4.5 19:33:38 10° SSE 19:39:18 36° E 19:44:54 10° NNE
Cosmos 1470 Rocket 4.5 19:44:05 10° SSE 19:47:51 27° E 19:51:37 10° NE
Cosmos 2074 Rocket 4.0 19:41:51 10° S 19:48:08 80° E 19:54:24 10° N
SME Rocket 4.2 19:49:09 10° NNE 19:54:47 34° E 19:58:53 10° SSE
DMSP B5D2-2 4.0 19:50:03 10° NNE 19:55:11 60° ESE 20:00:18 10° S
H-2A R/B 2.1 19:52:41 10° SSE 19:57:59 86° ENE 20:03:23 10° N
Delta 7925 Rocket 3.7 19:54:25 10° W 19:58:54 51° NNW 20:01:52 21° NE
ARGOS 3.2 19:54:29 10° SSE 19:59:44 56° ENE 20:05:00 10° N
HJ-1C 3.4 19:56:43 10° SSE 19:59:58 52° ENE 20:03:13 10° N
Cosmos 2184 Rocket 4.1 19:54:44 10° S 20:00:53 81° W 20:07:03 10° N
SL-08 RB Rocket 4.2 19:57:30 10° SE 20:01:33 35° ENE 20:05:38 10° N
Cosmos 1602 3.5 20:01:09 10° S 20:04:57 82° E 20:08:48 10° N
IRS-P2 Rocket 4.5 20:01:13 10° SSE 20:06:27 87° ENE 20:11:39 10° NNW
Cosmos 2227 Rocket 3.2 20:01:35 10° NNW 20:07:00 49° WSW 20:12:23 10° S
Meteor 1-25 Rocket 4.5 20:01:23 10° S 20:07:12 75° W 20:13:00 10° N
Cosmos 1666 Rocket 4.5 20:06:40 10° SSW 20:10:56 50° W 20:15:09 10° N
Cosmos 1850 Rocket 4.0 20:06:41 10° NNW 20:11:52 84° WSW 20:17:05 10° S
CSL-04 Debris 4.1 20:07:52 10° SSE 20:13:12 65° ENE 20:18:33 10° N
Cosmos 2228 Rocket 4.4 20:10:30 10° NNW 20:14:42 42° W 20:18:52 10° SSW
GPS 2-15 Rocket1 3.7 20:12:14 10° WNW 20:17:02 49° N 20:18:22 38° NE
Meteor 1-27 Rocket 3.9 20:11:34 10° N 20:17:03 73° W 20:22:37 10° S
GPS 2-14 Rocket1 2.4 20:15:02 10° WSW 20:18:45 66° SSE 20:18:57 64° SE
CSL-04 Rocket 3.6 20:14:55 10° SSE 20:20:25 72° ENE 20:25:57 10° N
Meteor 2-12 Rocket 4.3 20:14:58 10° S 20:20:59 74° E 20:27:00 10° N
Aureole 1 Rocket 4.1 20:16:32 10° NNW 20:22:20 57° W 20:26:42 10° S
Cosmos 2341 Rocket 4.2 20:18:01 10° SSE 20:24:01 45° E 20:27:09 26° NE
COSMOS 2455 3.6 20:18:47 10° N 20:23:02 31° NE 20:23:02 31° NE
Cosmos 2360 Rocket 2.1 20:18:56 10° S 20:24:26 59° ESE 20:26:28 37° NE
Helios 1A Rocket 3.0 20:20:38 10° S 20:24:44 76° WSW 20:28:48 10° NNW
YAOGAN 1 4.0 20:21:02 10° S 20:25:03 39° W 20:29:05 10° NNW
Cosmos 962 Rocket 4.5 20:19:48 10° SSE 20:25:44 54° E 20:31:42 10° NNE
Okean-O 3.9 20:22:38 10° S 20:26:47 40° W 20:30:57 10° NNW
CZ-2C R/B 4.3 20:23:03 10° NNW 20:27:52 33° WNW 20:32:36 10° SW
DELTA 2 R/B (1) 4.1 20:25:24 10° SSW 20:30:28 40° SE 20:30:28 40° SE
FUSE 4.3 20:25:38 10° W 20:30:55 56° NNW 20:32:10 45° NNE
Cosmos 1992 Rocket 4.3 20:29:01 10° SSW 20:34:12 67° WNW 20:39:22 10° N
OAO 1 Rocket 4.5 20:35:47 10° WNW 20:41:05 73° SW 20:41:46 64° SSE
SWIFT 3.1 20:37:47 10° WSW 20:40:54 44° SSW 20:40:54 44° SSW
EPKM 4.0 20:33:28 10° WNW 20:42:48 41° N 20:42:48 41° N
Cosmos 1818 4.1 20:41:35 10° NNW 20:46:55 58° WSW 20:50:16 22° S
Cosmos 2322 Rocket 3.7 20:44:28 10° SW 20:49:29 34° WNW 20:54:31 10° N
Milstar 3 3.4 20:40:22 10° WNW 20:53:01 78° SSW 20:55:34 49° SE
Cosmos 44 4.1 20:56:30 10° NNW 21:00:33 50° NW 21:00:33 50° NW
Atlas Centaur 2 2.8 21:00:28 10° WNW 21:04:41 46° W 21:04:41 46° W
Delta 2 Rocket 4.2 21:04:32 10° WSW 21:09:31 61° W 21:09:31 61° W
ATLAS CENTAUR R/B 4.2 21:12:14 10° WSW 21:12:54 14° WSW 21:12:54 14° WSW
